Regional Weather Roundup
Issued by NWS

Home | Current Version | Previous Version | Graphics & Text | Print | Product List | Glossary On
Versions: 1 2 3 4 5 6 7 8 9 10 11 12 13 14 15 16 17 18 19 20 21 22 23 24 25 26 27 28 29 30 31 32 33 34 35 36 37 38 39 40 41 42 43 44 45 46 47 48 49 50
000
ASUS43 KMPX 230610
RWRMN
WEATHER ROUNDUP FOR MINNESOTA
NATIONAL WEATHER SERVICE TWIN CITIES/CHANHASSEN MN
100 AM CDT TUE AUG 23 2016


NOTE: "FAIR" INDICATES FEW OR NO CLOUDS BELOW 12,000 FEET WITH NO
SIGNIFICANT WEATHER AND/OR OBSTRUCTIONS TO VISIBILITY. N/A MEANS
CURRENT SKY AND/OR WEATHER CONDITIONS ARE NOT AVAILABLE.

MNZ060>063-068>070-230700-
   Twin Cities Metro

CITY           SKY/WX    TMP DP  RH WIND       PRES   REMARKS
TWIN CITIES    CLOUDY    73  59  61 S10G21    29.94S
6HR MIN TEMP:  73; 6HR MAX TEMP:  81;

ST PAUL        CLOUDY    70  60  70 S9        29.96R
CRYSTAL        CLOUDY    73  58  59 S20G25    29.92R
BLAINE         CLOUDY    75  61  60 S16G24    29.93S
LAKEVILLE      CLOUDY    68  61  77 S14G20    29.96R
EDEN PRAIRIE   CLOUDY    72  60  66 SW16G25   29.93R
6HR MIN TEMP:  72; 6HR MAX TEMP:  80;

LAKEVILLE      CLOUDY    68  61  77 S14G20    29.96R
SOUTH ST PAUL  CLOUDY    71  59  67 S16       29.95S
LAKE ELMO      FAIR      68  61  77 S12G17    29.97S
$$
MNZ001>005-007-008-013>017-022>024-027-028-230700-
   Northwest Minnesota

CITY           SKY/WX    TMP DP  RH WIND       PRES   REMARKS
BEMIDJI        CLEAR     71  66  82 S8        29.79R
HALLOCK        CLEAR     72  66  83 SE10      29.67F
ROSEAU         CLEAR     66  61  82 SE5       29.73F
WARROAD        CLEAR     64  61  88 SE3       29.75F
THIEF RVR FALL CLEAR     68  65  90 SE9       29.73S
CROOKSTON      CLEAR     73  68  83 S14       29.69S
FOSSTON        CLEAR     70  64  83 S9        29.75F
DETROIT LAKES  PTCLDY    72  64  78 S12G17    29.78S
MOORHEAD       CLEAR     73  64  73 S15G23    29.70F
PARK RAPIDS    CLEAR     70  64  81 SE8       29.81S
MAHNOMEN       FAIR      72  66  79 S8        29.74F
$$
MNZ006-009>011-018-025>026-230700-
   North Central Minnesota

CITY           SKY/WX    TMP DP  RH WIND       PRES   REMARKS
BAUDETTE       CLEAR     65  63  93 SE6       29.76F
FLAG ISLAND    CLEAR     72  68  88 CALM      29.75S FOG
INTL FALLS     CLEAR     61  60  97 E3        29.80S
6HR MIN TEMP:  61; 6HR MAX TEMP:  78;

WASKISH        CLEAR     66  64  94 S3        29.77S
BIG FORK       CLEAR     68  64  88 S5        29.82S
LONGVILLE      CLEAR     72  64  78 S9        29.84R
GRAND RAPIDS   CLEAR     69  63  81 S9        29.87R
CRANE LAKE     CLEAR     55  55 100 S2        29.84S
ORR            CLEAR     64  61  88 CALM      29.82R
COOK           CLEAR     70  63  78 S7        29.85S
WALKER         FAIR      72  64  75 S10G18    29.80S
$$
MNZ012-019>021-037-230700-
   Northeast Minnesota

CITY           SKY/WX    TMP DP  RH WIND       PRES   REMARKS
DULUTH         CLEAR     69  60  73 SW15      29.90R
6HR MIN TEMP:  69; 6HR MAX TEMP:  78;

ELY            CLEAR     70  61  73 SW6       29.87S
HIBBING        CLEAR     67  61  81 VRB3      29.86S
EVELETH        CLEAR     66  60  79 S3        29.89R
DULUTH HARBOR  CLEAR     72  63  73 SW10      29.88S
TWO HARBORS    CLEAR     66  61  82 SW3       29.88S
SILVER BAY     CLEAR     63  61  94 MISG      29.88S
GRAND MARAIS     N/A     67  64  90 CALM      29.88R
G MARAIS ARPRT CLOUDY    64  57  77 S6        29.93S
$$
MNZ029>031-032-039>041-046>048-054>057-064-230700-
   West Central Minnesota

CITY           SKY/WX    TMP DP  RH WIND       PRES   REMARKS
FERGUS FALLS     N/A     72  63  73 S16       29.77S
WHEATON        CLEAR     73  66  78 SE10      29.76S
MORRIS         CLEAR     70  63  78 S12       29.79S
ALEXANDRIA     CLEAR     71  62  73 S21G28    29.83S
ELBOW LAKE     FAIR      69  63  81 S17       29.79R
GLENWOOD       CLEAR     70  63  78 S20G28    29.85S
APPLETON       CLEAR     73  61  64 S12G18    29.80S
BENSON         PTCLDY    70  61  73 S13       29.83S
ORTONVILLE     CLEAR     72  61  68 S10G17    29.78S
MADISON        PTCLDY    73  59  60 S14G20    29.80F
WILLMAR        FAIR      70  63  78 S7        29.88S
$$
MNZ033>034-036-042>043-049>051-058-059-230700-
   Central Minnesota

CITY           SKY/WX    TMP DP  RH WIND       PRES   REMARKS
ST CLOUD       CLOUDY    70  62  76 S14       29.89R
6HR MIN TEMP:  70; 6HR MAX TEMP:  79;

SAUK CENTRE    FAIR      69  62  78 S15G22    29.85S
PAYNESVILLE    PTCLDY    69  60  74 S12G20    29.88S
AITKIN         CLEAR     73  61  64 S7        29.86R
PINE RIVER     CLEAR     70  63  78 S7        29.87S
BRAINERD       CLEAR     68  62  81 S9        29.86S
STAPLES        CLEAR     70  61  73 S15       29.83S
LONG PRAIRIE   FAIR      68  61  77 SE12G21   29.85S
LITTLE FALLS   CLEAR     70  59  68 S8G17     29.87S
LITCHFIELD     CLOUDY    70  64  83 S7        29.90S
BUFFALO        CLOUDY    71  59  67 S13G23    29.93R
MAPLE LAKE     CLOUDY    71  63  74 S8G17     29.91S
HUTCHINSON     CLEAR     70  63  77 S14G20    29.92S
$$
MNZ037-044-045-052-053-230700-
   East Central Minnesota

CITY           SKY/WX    TMP DP  RH WIND       PRES   REMARKS
PRINCETON      CLOUDY    73  61  64 S12G24    29.91R
MORA           CLOUDY    68  59  73 S8        29.92S
CAMBRIDGE      CLOUDY    73  61  64 S13G21    29.90S
RUSH CITY      PTCLDY    70  60  70 S7        29.92S
MOOSE LAKE     CLEAR     66  59  77 S5        29.88S
HINCKLEY       FAIR      64  61  88 S6        29.92R
CLOQUET        CLEAR     68  57  68 S9        29.90S
MCGREGOR       CLEAR     70  61  73 S7        29.89R
$$
MNZ071>073-080-081-089-090-097-098-230700-
   Southwest Minnesota

CITY           SKY/WX    TMP DP  RH WIND       PRES   REMARKS
MONTEVIDEO     CLOUDY    70  63  78 SW10G17   29.85S
GRANITE FALLS  CLOUDY    70  63  77 S12G17    29.87S
CANBY          CLOUDY    74  60  61 SW20G30   29.82R
MARSHALL       CLOUDY    71  61  70 S22G32    29.84R
REDWOOD FALLS  CLOUDY    71  59  65 S17       29.88S
OLIVIA         CLEAR     70  59  68 S13G20    29.88S
PIPESTONE      PTCLDY    68  61  77 S17       29.90S
WINDOM         CLEAR     70  57  64 S15G25    29.94S
WORTHINGTON    PTCLDY    68  60  75 S17G23    29.94S
JACKSON        CLEAR     68  57  68 S15G21    29.96F
TRACY          PTCLDY    71  61  70 S20G28    29.88S
SLAYTON        PTCLDY    68  59  73 S15G25    29.92S
$$
MNZ065>067-074>077-082>085-091>093-230700-
   South Central Minnesota

CITY           SKY/WX    TMP DP  RH WIND       PRES   REMARKS
MANKATO        CLOUDY    70  57  64 S17G25    29.96S
NEW ULM          N/A     68  61  77 S13       29.92S
ST JAMES       CLEAR     64  55  72 S13G21    29.95S
GLENCOE        CLOUDY    70  64  80 S13G18    29.92S
FARIBAULT      CLOUDY    68  61  77 S9        29.98S
OWATONNA       CLEAR     66  61  82 S10       30.00R
WASECA         CLOUDY    64  59  82 S14G20    30.00S
ALBERT LEA     CLEAR     66  61  82 S10       30.02R
$$
MNZ078>079-086>088-094>096-230700-
   Southeast Minnesota

CITY           SKY/WX    TMP DP  RH WIND       PRES   REMARKS
ROCHESTER      CLEAR     66  60  81 S14       30.04R
6HR MIN TEMP:  65; 6HR MAX TEMP:  75;

RED WING       CLEAR     70  59  68 S5        29.98S
STANTON        PTCLDY    68  61  77 S9        29.97R
DODGE CENTER   CLEAR     66  59  77 S16       30.02S
WINONA         CLEAR     70  59  68 S6        30.02S
AUSTIN         CLEAR     64  59  82 S12G18    30.03S
PRESTON        CLEAR     65  59  82 S10       30.06S
$$
ABBREVIATIONS USED IN REMARKS
   TC - TEMPERATURES IN CELSIUS
  WCI - WIND CHILL INDEX
   HX - HEAT INDEX
  VSB - VISIBILITY
$$




USA.gov is the U.S. government's official web portal to all federal, state and local government web resources and services.